This is the latest recevied weather packets stored in our database for station/object DM2KB-13. If no packets are shown the sender has not sent any weather packets the latest 10 day(s).
| Time | Temp. | Humidity | Pressure | Rain* | Wind** | Luminosity | Snow |
|---|---|---|---|---|---|---|---|
| 1777643083 | 25.56° C | 27% | 1022.5 hPa | 0 mm | - | 696 W/m² | - |
| 1777642783 | 25.56° C | 26% | 1022.5 hPa | 0 mm | - | 705 W/m² | - |
| 1777642482 | 25.56° C | 26% | 1022.6 hPa | 0 mm | - | 712 W/m² | - |
| 1777642182 | 25.56° C | 28% | 1022.7 hPa | 0 mm | - | 719 W/m² | - |
| 1777641882 | 25.56° C | 27% | 1022.7 hPa | 0 mm | - | 728 W/m² | - |
| 1777641581 | 25.56° C | 27% | 1022.8 hPa | 0 mm | - | 735 W/m² | - |
| 1777641281 | 25.56° C | 28% | 1022.9 hPa | 0 mm | - | 744 W/m² | - |
| 1777640981 | 25° C | 29% | 1023 hPa | 0 mm | - | 745 W/m² | - |
| 1777640681 | 25° C | 27% | 1023.1 hPa | 0 mm | - | 751 W/m² | - |
| 1777640380 | 25° C | 29% | 1023.2 hPa | 0 mm | - | 758 W/m² | - |
| 1777640080 | 25° C | 26% | 1023.2 hPa | 0 mm | - | 761 W/m² | - |
| 1777639780 | 25° C | 27% | 1023.2 hPa | 0 mm | - | 765 W/m² | - |
| 1777639479 | 25° C | 28% | 1023.3 hPa | 0 mm | - | 770 W/m² | - |
| 1777639179 | 25° C | 27% | 1023.4 hPa | 0 mm | - | 775 W/m² | - |
| 1777638879 | 24.44° C | 29% | 1023.5 hPa | 0 mm | - | 777 W/m² | - |
| 1777638579 | 24.44° C | 27% | 1023.6 hPa | 0 mm | - | 784 W/m² | - |
| 1777638278 | 24.44° C | 27% | 1023.6 hPa | 0 mm | - | 786 W/m² | - |
| 1777637978 | 24.44° C | 27% | 1023.7 hPa | 0 mm | - | 789 W/m² | - |
| 1777637678 | 25° C | 26% | 1023.7 hPa | 0 mm | - | 793 W/m² | - |
| 1777637378 | 25° C | 28% | 1023.8 hPa | 0 mm | - | 796 W/m² | - |
| 1777637077 | 24.44° C | 31% | 1023.8 hPa | 0 mm | - | 796 W/m² | - |
| 1777636777 | 24.44° C | 29% | 1023.9 hPa | 0 mm | - | 796 W/m² | - |
| 1777636477 | 24.44° C | 29% | 1024 hPa | 0 mm | - | 798 W/m² | - |
| 1777636176 | 24.44° C | 30% | 1024.2 hPa | 0 mm | - | 800 W/m² | - |
| 1777635876 | 23.89° C | 27% | 1024.2 hPa | 0 mm | - | 800 W/m² | - |
* Rain latest hour (hover to see other rain measurements)
** Current wind speed in m/s (hover to see current wind gust speed)